Theta_e
305 306 307 308 309 309 310 310 312 311 305 305 307 308 309 309 304 305 307 308 306 304 303 301 299 299 299 299 301 302 299 297 295 294 293 293 294 294 293 293 293 294 294 294
304 304 306 306 306 308 308 308 308 308 303 301 305 306 307 307 307 305 305 306 306 304 303 300 299 299 299 300 301 300 299 297 295 293 293 293 293 293 293 293 293 293 293 293
304 303 300 303 304 305 306 306 307 307 306 302 303 305 306 306 306 305 305 305 305 304 302 301 299 300 300 299 302 300 299 297 294 293 293 293 293 293 293 293 293 293 293 293
303 300 300 301 303 304 304 305 305 305 305 304 303 304 307 309 308 305 304 303 304 304 303 301 300 299 300 301 301 299 299 296 294 293 293 293 293 293 292 292 293 292 292 292
302 299 299 300 301 302 303 300 302 304 304 304 304 303 305 307 306 307 304 302 302 303 303 301 300 301 301 301 301 299 298 295 294 293 292 292 292 292 292 292 292 292 292 292
298 294 297 300 296 297 299 300 300 301 302 303 303 304 306 308 308 306 307 305 301 302 303 302 300 299 299 300 299 298 297 295 294 293 292 291 292 292 292 292 292 292 291 291
297 297 295 295 298 297 299 301 304 305 304 306 302 305 306 307 307 304 304 305 303 301 302 301 300 299 298 299 298 298 297 295 294 293 291 291 291 291 291 292 291 291 291 291
302 303 296 295 299 300 299 301 306 308 308 307 298 301 305 306 305 303 301 300 301 301 301 301 300 298 298 299 298 298 296 295 294 293 291 291 291 291 290 290 290 290 290 290
303 300 293 292 294 296 299 299 300 305 298 301 303 305 305 305 305 304 303 300 298 299 299 301 300 297 297 298 298 298 296 295 294 293 291 291 290 290 290 290 290 289 289 290
301 303 292 291 292 294 296 296 299 300 305 305 305 306 306 307 306 305 304 303 301 299 298 298 300 297 297 297 298 297 296 295 295 294 292 291 290 290 290 290 290 289 289 290
303 301 294 291 294 297 294 297 297 299 303 305 304 306 309 307 304 302 302 300 300 300 298 297 298 297 296 296 297 297 296 295 294 294 293 292 291 290 290 290 290 289 289 289
300 305 300 298 292 291 292 298 299 302 304 301 302 304 305 306 302 299 299 299 298 298 298 297 297 296 296 295 296 296 296 295 295 294 293 292 290 290 290 290 290 289 289 289
297 301 301 299 294 291 293 294 297 299 298 303 305 305 301 302 303 301 299 299 298 297 297 297 296 296 295 295 295 296 296 296 295 294 293 292 290 290 289 289 289 289 289 288
296 305 303 305 302 298 294 294 294 298 301 300 301 301 302 302 302 302 302 301 300 297 297 296 296 295 294 294 294 295 295 296 295 294 293 292 291 290 289 289 289 289 288 288
299 298 297 298 296 294 296 297 295 295 296 299 299 300 302 302 302 302 300 300 299 296 297 296 296 295 294 294 294 295 296 296 295 294 294 293 292 290 289 288 288 288 288 288
292 301 293 298 298 295 295 296 295 296 296 296 297 297 298 299 299 299 299 299 298 298 296 297 296 295 296 296 295 295 294 294 294 294 294 293 292 291 289 288 287 287 287 287
296 299 297 300 295 296 298 297 297 298 299 298 298 299 300 300 300 300 300 299 298 298 298 296 297 296 295 296 296 295 294 294 294 293 293 292 292 291 289 288 287 287 286 286
296 298 300 301 294 300 302 295 298 298 299 300 299 299 299 300 300 300 299 296 297 297 297 297 296 295 294 294 294 294 294 293 293 292 292 291 291 290 289 288 287 286 286 286
298 297 299 301 301 300 300 300 296 296 300 298 299 299 299 299 298 297 296 295 294 294 295 295 294 294 293 293 292 292 292 291 291 291 291 290 290 290 289 288 287 286 286 285
293 297 300 300 300 302 300 295 296 296 299 300 300 300 300 298 297 300 292 292 292 291 291 291 291 291 291 291 291 291 291 290 290 290 290 290 289 288 288 287 286 286 285 285
292 294 297 299 300 300 301 293 294 300 306 295 296 297 297 298 298 291 290 290 289 288 288 288 288 287 287 287 289 289 289 289 289 289 289 288 287 286 286 286 285 285 284 284
294 295 295 296 299 299 296 294 298 304 296 295 295 295 294 295 292 289 288 286 286 286 285 284 284 284 284 285 286 287 287 287 287 287 286 286 285 285 285 284 284 283 283 282
295 298 298 298 299 301 296 298 296 296 294 295 294 294 294 291 288 286 285 283 283 283 283 283 284 283 283 284 285 286 285 284 285 285 284 284 284 283 283 283 282 281 280 279
292 295 295 295 297 296 295 295 295 296 296 295 294 293 292 291 288 285 283 282 281 281 281 281 282 283 283 282 283 285 284 283 283 283 282 282 282 281 280 279 279 278 277 277
297 294 295 296 296 296 296 296 296 295 295 295 294 292 290 289 287 284 281 279 278 279 279 280 281 281 281 281 282 281 281 281 282 281 280 279 279 278 277 276 276 277 277 277
295 296 296 297 297 297 297 297 296 295 295 295 291 290 288 287 285 281 279 277 277 277 278 278 279 281 280 280 280 279 278 279 280 279 277 277 276 276 277 277 277 276 276 275
Wind_Speed
12 10 15 18 18 19 19 15 17 12 4 6 17 21 20 21 18 20 25 26 28 29 27 27 28 29 30 28 28 27 26 24 23 21 19 18 17 15 13 12 11 11 11 11
6 16 15 7 9 15 16 19 20 18 5 5 16 24 22 21 24 29 29 28 31 28 29 32 34 36 35 33 31 29 28 26 25 23 22 19 18 16 15 14 13 12 12 12
14 1 5 4 9 11 16 18 18 17 5 13 15 23 23 22 31 33 32 33 31 35 37 38 42 42 38 37 35 33 30 28 27 26 25 22 20 18 17 16 15 14 14 14
11 2 5 6 11 12 15 9 12 15 7 8 4 13 16 14 11 15 28 31 36 39 40 41 45 44 44 41 36 34 32 30 29 29 26 23 21 20 18 18 17 16 16 16
3 4 7 11 6 8 2 3 5 10 12 13 16 8 7 12 16 18 20 32 37 37 39 41 47 46 43 41 40 37 34 33 32 30 28 25 23 21 20 20 19 18 17 17
2 0 3 1 3 0 3 2 2 4 6 8 15 15 19 15 14 15 15 25 32 34 35 36 37 40 42 41 41 39 37 35 35 33 31 29 26 25 23 22 21 20 19 18
5 7 4 2 4 2 7 6 3 4 5 8 1 11 19 11 18 9 11 14 16 27 33 36 39 42 43 44 44 42 40 39 37 36 34 31 28 25 23 23 22 22 21 20
7 6 10 9 3 4 13 7 5 7 8 10 3 8 6 8 16 15 14 12 12 19 31 36 40 45 46 47 46 44 43 40 40 38 36 33 30 28 25 24 24 23 22 21
6 4 3 1 1 2 7 7 3 5 2 5 9 16 8 14 15 12 14 8 12 14 23 31 33 39 44 48 46 46 44 41 40 39 37 36 33 30 28 25 24 23 21 21
1 2 0 4 2 3 2 3 3 4 5 8 9 8 10 12 13 6 8 8 13 15 20 29 33 37 41 45 46 44 43 43 40 39 38 36 34 31 29 27 25 24 23 21
1 0 4 2 9 10 5 5 5 3 5 5 8 6 3 5 6 9 11 15 16 12 16 23 29 32 35 42 44 45 44 42 40 38 37 36 35 33 31 28 26 26 24 23
4 1 4 6 4 2 3 6 10 5 6 6 6 11 10 12 4 4 8 7 12 7 8 16 24 30 34 39 43 46 44 42 39 37 38 37 35 34 33 32 28 28 26 24
8 3 4 4 1 1 5 7 8 8 4 14 8 7 2 2 5 6 4 8 10 11 5 12 19 28 34 39 42 44 44 42 40 38 37 38 37 35 35 33 30 29 27 26
7 4 6 10 4 3 4 6 12 10 7 12 21 24 21 20 20 21 30 34 22 8 8 15 21 25 30 36 40 43 43 42 41 39 37 37 37 36 34 32 31 29 28 26
2 5 4 10 13 6 7 8 11 15 20 13 21 25 19 15 14 19 26 29 22 17 16 19 25 29 30 35 38 40 41 44 43 40 37 36 35 34 32 31 31 28 27 26
2 7 2 5 12 12 15 16 13 21 22 24 25 36 23 29 34 34 37 35 30 25 24 23 25 32 37 37 39 39 41 41 42 41 38 36 34 32 31 31 29 28 27 26
7 5 4 7 2 8 14 20 24 21 19 23 22 35 20 23 23 27 33 30 27 28 27 26 27 32 37 39 40 41 42 41 40 40 38 36 33 32 31 29 28 27 26 26
6 8 5 3 2 9 1 2 7 20 22 20 26 29 26 27 38 35 29 25 29 31 30 29 25 27 33 37 36 38 38 40 40 39 37 35 33 31 30 29 28 28 27 25
10 9 4 5 10 12 16 10 7 8 11 19 22 24 22 29 25 28 27 22 24 25 24 22 19 22 26 31 31 34 35 35 35 36 36 34 34 33 32 31 29 27 25 23
4 8 8 6 6 9 2 3 8 4 8 13 12 17 16 7 6 8 11 12 12 11 8 10 14 19 21 27 30 33 35 36 36 35 34 33 31 30 30 29 28 26 23 22
5 5 15 16 12 9 5 7 7 3 4 1 0 4 9 6 6 11 12 11 9 5 3 7 11 16 19 25 30 34 34 34 32 31 30 29 28 29 28 27 25 23 22 20
11 13 7 10 7 17 11 8 9 3 2 4 4 10 8 10 13 12 11 7 5 2 4 7 12 16 19 23 26 29 29 28 28 27 27 28 27 27 26 25 24 22 20 18
6 9 6 11 8 1 11 16 20 12 12 11 11 13 15 13 11 9 7 6 4 4 6 10 13 16 17 19 21 26 26 26 27 28 29 29 29 28 26 25 24 22 19 16
6 6 5 4 13 16 18 21 24 24 29 27 25 19 17 14 13 9 8 7 6 7 10 13 16 20 21 21 23 22 26 27 28 30 30 29 29 28 26 24 21 19 16 13
9 8 8 11 17 15 29 25 23 26 32 35 36 27 18 16 13 11 10 10 10 13 16 19 22 25 28 27 26 26 27 28 31 31 31 30 28 26 25 21 18 14 11 7
16 15 11 12 13 9 20 22 26 22 24 29 28 26 18 16 14 14 13 13 16 19 22 24 26 27 31 30 31 31 29 28 29 32 31 29 27 25 21 17 15 11 6 1
Wind_Direction
200 216 218 225 228 250 274 278 267 273 117 255 241 254 258 249 216 229 229 222 218 215 208 204 204 205 207 207 209 209 207 205 202 198 195 193 191 188 184 177 171 166 162 158
191 231 239 243 282 244 254 256 261 270 167 222 275 270 265 257 243 229 230 224 220 215 208 205 208 210 210 209 209 208 207 207 202 199 194 193 192 187 185 178 174 169 163 158
229 120 62 203 231 236 242 250 259 264 277 238 276 275 258 249 238 238 230 231 223 213 205 202 210 211 210 210 210 209 208 207 203 200 198 195 193 191 186 181 178 172 167 162
244 145 178 199 234 226 253 258 257 264 256 263 169 290 285 293 237 227 228 226 223 213 209 205 210 207 210 211 210 210 209 207 204 203 200 198 197 193 190 188 183 178 176 169
188 192 200 225 241 188 270 12 250 262 258 276 255 263 284 258 256 239 228 227 223 217 208 202 212 213 211 209 210 209 209 207 206 204 201 197 196 195 196 193 187 184 182 176
315 41 246 46 87 18 104 139 193 234 258 253 242 239 276 256 254 248 250 235 225 217 210 207 210 207 208 210 209 209 208 207 206 204 202 199 198 201 199 195 192 190 188 184
176 206 142 192 161 151 200 189 227 235 211 251 321 243 246 299 292 257 265 274 227 217 208 203 199 200 203 207 207 208 208 207 206 204 203 201 201 203 203 201 199 197 194 192
201 219 182 163 243 200 193 218 237 255 246 283 115 240 254 251 285 277 276 267 253 216 210 206 201 202 204 208 208 207 207 207 206 205 204 204 204 204 204 204 204 202 200 198
189 182 123 68 343 305 161 215 14 311 152 270 247 253 256 249 262 276 274 275 257 238 216 210 205 201 202 209 209 208 207 207 208 207 206 206 206 206 205 207 207 205 204 205
256 188 29 110 203 202 280 344 169 211 248 252 248 261 255 279 278 21 15 313 268 240 219 209 204 201 205 212 210 209 210 209 209 209 209 210 210 210 209 211 211 211 212 212
73 270 112 161 202 190 172 211 221 290 251 263 284 266 11 344 35 344 338 327 326 278 238 212 203 201 200 210 209 208 209 208 209 210 210 212 213 212 213 214 214 216 217 215
174 112 228 209 96 8 338 236 193 224 210 239 287 258 290 291 321 294 299 320 351 328 254 219 204 196 196 206 208 207 207 208 210 210 210 211 212 213 213 215 216 217 218 218
167 202 227 197 187 22 222 208 231 257 296 246 264 250 137 213 308 287 293 350 346 339 235 213 210 202 197 202 205 207 208 209 210 210 211 211 213 213 215 216 217 218 219 219
167 182 243 247 57 76 203 215 224 222 248 263 242 270 270 284 291 295 303 301 316 288 272 217 210 213 206 203 205 207 207 209 211 211 211 212 213 215 216 216 218 219 219 221
206 229 217 260 268 226 241 222 204 216 233 245 270 272 272 281 289 295 294 291 292 279 270 248 218 208 210 209 209 209 211 211 212 211 211 213 214 215 215 216 218 219 219 220
68 218 124 263 256 244 254 243 233 242 240 257 265 270 265 273 276 271 273 274 277 274 262 265 245 230 219 215 213 210 209 210 210 211 211 212 212 212 213 215 216 216 218 219
169 198 181 252 346 290 270 242 228 243 240 238 252 258 282 274 269 268 275 279 277 275 271 259 258 247 230 221 213 211 208 211 209 209 209 210 210 209 211 212 212 212 214 216
167 195 193 254 148 250 354 117 223 233 249 242 252 262 266 266 274 280 287 291 283 277 275 271 267 244 232 223 216 214 212 211 208 206 206 207 207 207 207 206 206 207 212 216
186 180 200 222 211 284 296 258 189 186 255 232 246 258 268 274 278 287 279 279 271 275 276 273 266 237 227 218 211 207 203 202 200 200 202 203 205 204 204 204 205 207 209 209
227 209 208 180 232 246 96 43 118 146 269 254 234 255 272 297 269 287 330 316 305 295 274 233 221 214 211 207 203 198 194 193 193 195 197 201 202 202 200 199 199 200 200 201
175 198 214 223 241 269 212 159 151 208 279 146 284 273 279 240 254 289 305 312 320 312 249 208 191 189 187 188 190 188 186 187 189 191 192 191 191 192 193 191 190 190 188 188
172 177 197 218 236 254 159 126 216 213 188 252 284 306 289 268 274 278 288 294 290 262 185 179 178 173 174 179 182 176 174 175 177 177 176 175 176 177 175 179 173 173 175 176
220 214 194 205 214 275 192 221 225 274 292 292 284 290 295 290 276 263 265 256 234 194 178 173 171 166 163 167 170 168 161 163 164 164 161 162 162 161 161 164 163 163 164 166
222 216 241 156 247 256 259 247 251 263 271 280 284 285 281 273 262 242 227 211 186 167 159 158 157 156 151 153 156 162 156 156 157 154 151 151 153 152 152 154 154 156 156 160
262 155 216 254 265 285 273 263 267 266 271 269 270 271 266 254 242 223 195 181 170 161 153 153 153 150 145 149 148 148 149 154 153 150 147 146 146 145 144 143 142 145 146 156
246 244 233 245 255 241 270 283 291 292 274 276 265 259 253 240 221 202 182 173 166 160 154 150 149 150 145 146 144 144 146 153 151 146 144 143 143 142 141 143 142 143 141 170